Volver al catálogo

SL-8 DEB

ActivoLEO
NORAD 21176·DEBRIS·🇷🇺 Russia

Lanzado Feb 12, 1991 desde Plesetsk Cosmodrome

Loading…

Próximos Pases (próximas 24 horas)

TLE

ActualizadoSource: Space-Track

Época: Sep 14, 2026, 04:11 UTC

1 21176U 91009AP  26257.17482312 -.00000005  00000-0  84726-4 0  9993
2 21176  74.0638 151.6649 0206382 182.1807 332.9521 12.18043930579688

Sigue SL-8 DEB en tiempo real con AllMySat

Download on the App Store